Time,TemperatureF,DewpointF,PressureIn,WindDirection,WindDirectionDegrees,WindSpeedMPH,WindSpeedGustMPH,Humidity,HourlyPrecipIn,Conditions,Clouds,dailyrainin,SoftwareType,DateUTC
2013-08-01 00:01:00,70.0,44.0,30.22,SE,135,1.0,2.0,39,0.00,,,0.00,,2013-08-01 06:01:00,
2013-08-01 00:32:00,69.0,45.0,30.20,South,180,5.0,7.0,42,0.00,,,0.00,,2013-08-01 06:32:00,
2013-08-01 00:52:00,66.0,43.0,30.19,South,180,1.0,3.0,43,0.00,,,0.00,,2013-08-01 06:52:00,
2013-08-01 01:02:00,65.0,44.0,30.19,South,180,2.0,3.0,46,0.00,,,0.00,,2013-08-01 07:02:00,
2013-08-01 01:11:00,64.0,43.0,30.19,South,180,2.0,3.0,47,0.00,,,0.00,,2013-08-01 07:11:00,
2013-08-01 01:22:00,64.0,43.0,30.20,SE,135,1.0,2.0,46,0.00,,,0.00,,2013-08-01 07:22:00,
2013-08-01 01:32:00,63.0,42.0,30.19,SE,135,2.0,3.0,47,0.00,,,0.00,,2013-08-01 07:32:00,
2013-08-01 01:43:00,62.0,43.0,30.19,NW,315,0.0,2.0,49,0.00,,,0.00,,2013-08-01 07:43:00,
2013-08-01 01:52:00,62.0,43.0,30.20,SE,135,1.0,2.0,49,0.00,,,0.00,,2013-08-01 07:52:00,
2013-08-01 02:02:00,62.0,43.0,30.20,South,180,1.0,3.0,50,0.00,,,0.00,,2013-08-01 08:02:00,
2013-08-01 02:12:00,62.0,43.0,30.20,South,180,1.0,3.0,50,0.00,,,0.00,,2013-08-01 08:12:00,
2013-08-01 02:33:00,62.0,43.0,30.22,West,270,1.0,3.0,50,0.00,,,0.00,,2013-08-01 08:33:00,
2013-08-01 02:42:00,62.0,45.0,30.23,NW,315,2.0,3.0,54,0.00,,,0.00,,2013-08-01 08:42:00,
2013-08-01 02:53:00,63.0,46.0,30.22,East,90,2.0,3.0,53,0.00,,,0.00,,2013-08-01 08:53:00,
2013-08-01 03:03:00,64.0,47.0,30.21,SE,135,0.0,3.0,53,0.00,,,0.00,,2013-08-01 09:03:00,
2013-08-01 03:12:00,65.0,48.0,30.21,NE,45,1.0,6.0,55,0.00,,,0.00,,2013-08-01 09:12:00,
2013-08-01 04:22:00,60.0,47.0,30.19,South,180,1.0,4.0,62,0.00,,,0.00,,2013-08-01 10:22:00,
2013-08-01 05:03:00,58.0,45.0,30.19,South,180,0.0,2.0,63,0.00,,,0.00,,2013-08-01 11:03:00,
2013-08-01 05:12:00,57.0,45.0,30.19,South,180,1.0,2.0,64,0.00,,,0.00,,2013-08-01 11:12:00,
2013-08-01 06:03:00,55.0,45.0,30.18,South,180,1.0,3.0,68,0.00,,,0.00,,2013-08-01 12:03:00,
2013-08-01 06:12:00,54.0,44.0,30.17,South,180,0.0,2.0,69,0.00,,,0.00,,2013-08-01 12:12:00,
2013-08-01 06:23:00,54.0,44.0,30.18,SW,225,1.0,4.0,70,0.00,,,0.00,,2013-08-01 12:23:00,
2013-08-01 06:33:00,54.0,44.0,30.17,South,180,2.0,2.0,70,0.00,,,0.00,,2013-08-01 12:33:00,
2013-08-01 06:53:00,55.0,45.0,30.18,South,180,2.0,3.0,70,0.00,,,0.00,,2013-08-01 12:53:00,
2013-08-01 07:12:00,56.0,46.0,30.18,South,180,0.0,2.0,68,0.00,,,0.00,,2013-08-01 13:12:00,
2013-08-01 07:53:00,57.0,47.0,30.17,NW,315,1.0,4.0,69,0.00,,,0.00,,2013-08-01 13:53:00,
2013-08-01 08:03:00,59.0,49.0,30.16,South,180,0.0,2.0,69,0.00,,,0.00,,2013-08-01 14:03:00,
2013-08-01 09:43:00,69.0,51.0,30.17,SE,135,0.0,2.0,53,0.00,,,0.00,,2013-08-01 15:43:00,
2013-08-01 09:53:00,69.0,51.0,30.16,East,90,0.0,2.0,52,0.00,,,0.00,,2013-08-01 15:53:00,
2013-08-01 10:33:00,70.0,53.0,30.17,South,180,0.0,2.0,54,0.00,,,0.00,,2013-08-01 16:33:00,
2013-08-01 10:44:00,69.0,54.0,30.17,West,270,1.0,2.0,58,0.00,,,0.00,,2013-08-01 16:44:00,
2013-08-01 11:43:00,69.0,54.0,30.16,North,0,2.0,4.0,59,0.00,,,0.00,,2013-08-01 17:43:00,
2013-08-01 12:12:00,70.0,54.0,30.16,NE,45,0.0,2.0,56,0.00,,,0.00,,2013-08-01 18:12:00,
2013-08-01 12:23:00,69.0,53.0,30.17,SE,135,0.0,2.0,57,0.00,,,0.00,,2013-08-01 18:23:00,
2013-08-01 12:53:00,69.0,56.0,30.17,West,270,2.0,3.0,63,0.00,,,0.00,,2013-08-01 18:53:00,
2013-08-01 13:02:00,69.0,55.0,30.18,South,180,1.0,2.0,62,0.00,,,0.00,,2013-08-01 19:02:00,
2013-08-01 13:13:00,68.0,55.0,30.17,West,270,1.0,2.0,64,0.00,,,0.00,,2013-08-01 19:13:00,
2013-08-01 13:43:00,68.0,56.0,30.17,South,180,2.0,3.0,66,0.00,,,0.00,,2013-08-01 19:43:00,
2013-08-01 13:53:00,68.0,56.0,30.17,SW,225,0.0,2.0,66,0.00,,,0.00,,2013-08-01 19:53:00,
2013-08-01 14:12:00,69.0,57.0,30.17,West,270,0.0,2.0,65,0.00,,,0.00,,2013-08-01 20:12:00,
2013-08-01 14:33:00,71.0,57.0,30.18,North,0,1.0,2.0,61,0.00,,,0.00,,2013-08-01 20:33:00,
2013-08-01 14:43:00,71.0,58.0,30.18,West,270,0.0,2.0,63,0.00,,,0.00,,2013-08-01 20:43:00,
2013-08-01 14:52:00,72.0,58.0,30.17,West,270,3.0,7.0,62,0.00,,,0.00,,2013-08-01 20:52:00,
2013-08-01 15:33:00,75.0,53.0,30.17,SE,135,4.0,8.0,47,0.00,,,0.00,,2013-08-01 21:33:00,
2013-08-01 15:53:00,71.0,53.0,30.18,North,0,1.0,4.0,53,0.00,,,0.00,,2013-08-01 21:53:00,
2013-08-01 16:02:00,69.0,53.0,30.19,South,180,2.0,5.0,56,0.00,,,0.00,,2013-08-01 22:02:00,
2013-08-01 16:32:00,67.0,57.0,30.17,West,270,0.0,2.0,70,0.00,,,0.00,,2013-08-01 22:32:00,
2013-08-01 16:43:00,67.0,56.0,30.17,West,270,0.0,0.0,68,0.00,,,0.00,,2013-08-01 22:43:00,
2013-08-01 17:12:00,67.0,57.0,30.18,SW,225,0.0,0.0,71,0.00,,,0.00,,2013-08-01 23:12:00,
2013-08-01 17:22:00,67.0,58.0,30.18,South,180,0.0,2.0,73,0.00,,,0.00,,2013-08-01 23:22:00,
2013-08-01 17:43:00,65.0,56.0,30.17,SE,135,2.0,3.0,74,0.01,,,0.01,,2013-08-01 23:43:00,
2013-08-01 17:53:00,64.0,56.0,30.16,South,180,0.0,2.0,76,0.01,,,0.01,,2013-08-01 23:53:00,
2013-08-01 18:02:00,64.0,57.0,30.16,SE,135,1.0,2.0,78,0.01,,,0.01,,2013-08-02 00:02:00,
2013-08-01 18:32:00,64.0,58.0,30.12,West,270,0.0,2.0,80,0.00,,,0.01,,2013-08-02 00:32:00,
2013-08-01 18:43:00,64.0,58.0,30.11,South,180,2.0,3.0,80,0.00,,,0.01,,2013-08-02 00:43:00,
2013-08-01 18:52:00,64.0,57.0,30.11,NE,45,0.0,2.0,78,0.00,,,0.01,,2013-08-02 00:52:00,
2013-08-01 19:02:00,64.0,57.0,30.11,SW,225,0.0,2.0,78,0.00,,,0.01,,2013-08-02 01:02:00,
2013-08-01 19:12:00,64.0,56.0,30.12,South,180,0.0,1.0,75,0.00,,,0.01,,2013-08-02 01:12:00,
2013-08-01 19:52:00,62.0,57.0,30.11,NW,315,2.0,4.0,85,0.00,,,0.01,,2013-08-02 01:52:00,
2013-08-01 20:02:00,62.0,58.0,30.11,South,180,0.0,2.0,86,0.00,,,0.01,,2013-08-02 02:02:00,
2013-08-01 20:12:00,62.0,58.0,30.11,NE,45,1.0,2.0,86,0.00,,,0.01,,2013-08-02 02:12:00,
2013-08-01 20:34:00,62.0,58.0,30.11,South,180,1.0,2.0,87,0.00,,,0.01,,2013-08-02 02:34:00,
2013-08-01 20:44:00,62.0,58.0,30.11,South,180,0.0,2.0,87,0.00,,,0.01,,2013-08-02 02:44:00,
2013-08-01 20:52:00,62.0,58.0,30.11,South,180,0.0,0.0,86,0.00,,,0.01,,2013-08-02 02:52:00,
2013-08-01 21:02:00,62.0,58.0,30.11,South,180,0.0,0.0,87,0.00,,,0.01,,2013-08-02 03:02:00,
2013-08-01 21:12:00,61.0,57.0,30.11,East,90,0.0,1.0,87,0.00,,,0.01,,2013-08-02 03:12:00,
2013-08-01 21:43:00,60.0,57.0,30.10,South,180,0.0,1.0,89,0.00,,,0.01,,2013-08-02 03:43:00,
2013-08-01 21:52:00,60.0,56.0,30.11,South,180,0.0,2.0,88,0.00,,,0.01,,2013-08-02 03:52:00,
2013-08-01 22:01:00,59.0,56.0,30.11,SE,135,1.0,2.0,90,0.00,,,0.01,,2013-08-02 04:01:00,
2013-08-01 22:12:00,59.0,56.0,30.11,South,180,0.0,2.0,90,0.00,,,0.01,,2013-08-02 04:12:00,
2013-08-01 22:22:00,58.0,55.0,30.11,South,180,0.0,2.0,90,0.00,,,0.01,,2013-08-02 04:22:00,
2013-08-01 22:43:00,57.0,54.0,30.11,SW,225,1.0,2.0,89,0.00,,,0.01,,2013-08-02 04:43:00,
2013-08-01 22:53:00,56.0,53.0,30.11,South,180,0.0,0.0,89,0.00,,,0.01,,2013-08-02 04:53:00,
2013-08-01 23:02:00,56.0,53.0,30.11,SE,135,2.0,2.0,90,0.00,,,0.01,,2013-08-02 05:02:00,
2013-08-01 23:12:00,56.0,53.0,30.11,North,0,0.0,2.0,91,0.00,,,0.01,,2013-08-02 05:12:00,
2013-08-01 23:21:00,56.0,53.0,30.11,SE,135,0.0,1.0,91,0.00,,,0.01,,2013-08-02 05:21:00,
2013-08-01 23:32:00,56.0,53.0,30.11,SE,135,1.0,3.0,91,0.00,,,0.01,,2013-08-02 05:32:00,
2013-08-01 23:43:00,56.0,53.0,30.11,South,180,0.0,0.0,91,0.00,,,0.01,,2013-08-02 05:43:00,
2013-08-01 23:53:00,56.0,53.0,30.10,SE,135,0.0,2.0,91,0.00,,,0.01,,2013-08-02 05:53:00,